Overview Statistics Trail Chart Weather Telemetry Raw packets
 

This is the latest recevied weather packets stored in our database for station/object HB9FHL-13. If no packets are shown the sender has not sent any weather packets the latest 10 day(s).

<< 77 78 79 80 81 82 83 >>
Time Temp. Humidity Pressure Rain* Wind** Luminosity Snow
1788188542 21.67° C - 1022.1 hPa 3.3 mm - - -
1788188289 22.22° C - 1019.7 hPa 3.3 mm - - -
1788188240 22.22° C - 1019.7 hPa 3.3 mm - - -
1788187940 22.22° C - 1016.9 hPa 3.3 mm - - -
1788187639 21.67° C - 1022.3 hPa 3.3 mm - - -
1788187339 21.67° C - 1023 hPa 3.3 mm - - -
1788187039 21.67° C - 1021.7 hPa 3.3 mm - - -
1788186738 22.22° C - 1017.9 hPa 3.3 mm - - -
1788186436 22.22° C - 1021 hPa 3.3 mm - - -
1788186135 22.22° C - 1027.3 hPa 3.3 mm - - -
1788185881 20.56° C - 1020.2 hPa 3.3 mm - - -
1788185835 20.56° C - 1020.2 hPa 3.3 mm - - -
1788185533 21.11° C - 1018.4 hPa 3.3 mm - - -
1788185232 21.11° C - 1024.3 hPa 3.3 mm - - -
1788184932 21.11° C - 1019.2 hPa 3.3 mm - - -
1788184666 21.11° C - 1021.3 hPa 3.3 mm - - -
1788184630 21.11° C - 1021.3 hPa 3.3 mm - - -
1788184329 21.67° C - 1018.3 hPa 3.3 mm - - -
1788184029 21.67° C - 1020.4 hPa 3.3 mm - - -
1788183728 21.11° C - 1018.2 hPa 3.3 mm - - -
1788183428 21.11° C - 1024 hPa 3.3 mm - - -
1788183127 21.11° C - 1018.4 hPa 3.3 mm - - -
1788182827 21.67° C - 1017.6 hPa 3.3 mm - - -
1788182525 22.22° C - 1023.8 hPa 3.3 mm - - -
1788182224 21.11° C - 1024 hPa 3.3 mm - - -

* Rain since midnight (hover to see other rain measurements)
** Current wind speed in m/s (hover to see current wind gust speed)